Location: Sternwarte auf dem Internationalen Platz Vogelsang IP
(50.5721°N, 6.4398°E)
Time: 07:08:57
(UTC+01:00)

Explorer 11/Cluster Stage 4 - Visible Passes

Search period start: 11 December 2025 00:00
Search period end: 21 December 2025 00:00
Orbit: 463 x 1181 km, 28.8° (Epoch: 10 December)

Date Brightness Start Highest point End Pass type
(mag) Time Alt. Az. Time Alt. Az. Time Alt. Az.
15 Dec 9.4 20:06:09 10° SSW 20:07:33 11° S 20:07:33 11° S visible
16 Dec 9.3 19:41:37 10° SSW 19:43:48 11° S 19:45:18 11° SSE visible
17 Dec 9.3 19:17:16 10° SSW 19:19:54 12° S 19:22:27 10° SSE visible
18 Dec 9.4 18:53:02 10° SSW 18:55:58 13° S 18:58:51 10° SSE visible
19 Dec 9.5 18:28:53 10° SSW 18:32:02 13° S 18:35:08 10° SSE visible
20 Dec 9.5 18:04:50 10° SSW 18:08:05 13° S 18:11:18 10° SSE visible
